Location: Unspecified
(0.0000°N, 0.0000°E)
Time: 08:06:56
(UTC+00:00)

Vanguard 3 - Pass Details

Date: 12 December 2017
Orbit: 508 x 3264 km, 33.3° (Epoch: 20 July)

Event Time Altitude Azimuth Distance (km) Brightness Sun altitude
Rises 06:58:56 0° 226° (SW) 6,753 11.6 15.0°
Reaches altitude 10° 07:04:20 10° 220° (SW) 5,379 11.2 16.2°
Maximum altitude 07:17:55 44° 153° (SSE) 2,333 10.4 19.3°
Drops below altitude 10° 07:25:50 10° 83° (E) 3,203 11.3 21.1°
Sets 07:28:12 0° 76° (ENE) 3,881 11.4 21.6°
